Terminal Aerodrome Forecast
Issued by NWS Portland, OR

Home | Current Version | Previous Version | Text Only | Print | Product List | Glossary On
Versions: 1 2 3 4 5 6 7 8 9 10 11 12 13 14 15 16 17 18 19 20 21 22 23 24 25 26 27 28 29 30 31 32 33 34 35 36 37 38 39 40 41 42 43 44 45 46 47 48 49 50
000
FTUS46 KPQR 201729
TAFPDX
TAF
KPDX 201729Z 2018/2118 11013KT P6SM -RA BKN025 OVC040
     FM201800 15012KT 4SM RADZ BR SCT012 BKN025 OVC035
     FM202000 18014G24KT 3SM RADZ BR BKN012 OVC025
     FM210600 22013KT 5SM -RA BR BKN015 OVC030=

USA.gov is the U.S. government's official web portal to all federal, state and local government web resources and services.